Regional Weather Roundup
Issued by NWS

Home | Current Version | Previous Version | Graphics & Text | Print | Product List | Glossary On
Versions: 1 2 3 4 5 6 7 8 9 10 11 12 13 14 15 16 17 18 19 20 21 22 23 24 25 26 27 28 29 30 31 32 33 34 35 36 37 38 39 40 41 42 43 44 45 46 47 48 49 50
000
ASUS43 KDTX 200201
RWRMI
MICHIGAN HOURLY REGIONAL WEATHER ROUNDUP
NATIONAL WEATHER SERVICE DETROIT/PONTIAC MI
1000 PM EDT SAT APR 19 2014

NOTE: "FAIR" INDICATES FEW OR NO CLOUDS BELOW 12,000 FEET WITH NO
SIGNIFICANT WEATHER AND/OR OBSTRUCTION TO VISIBILITY.

MIZ047>049-052>055-059>063-066>070-074>076-081>083-200300-
SOUTHEAST LOWER MICHIGAN

CITY           SKY/WX    TMP DP  RH WIND       PRES   REMARKS
ADRIAN         CLEAR     42  30  62 E5        30.35F
ALMA           MOCLDY    41  35  79 NE6       30.34R
ANN ARBOR      CLEAR     42  29  59 SE3       30.35F
BAD AXE        CLEAR     36  30  78 CALM      30.37R
CARO           CLEAR     44  34  67 E3        30.35R
DETROIT CITY   CLEAR     45  27  49 SE6       30.38R
DETROIT        PTCLDY    42  30  62 SE3       30.37F
FLINT          CLEAR     45  28  51 SE5       30.34R
GROSSE ILE     CLEAR     43  30  61 CALM      30.36F
HILLSDALE      CLEAR     45  29  54 SE7       30.33F
HOWELL         CLEAR     47  29  50 S7        30.35R

CITY           SKY/WX    TMP DP  RH WIND       PRES   REMARKS
JACKSON        CLEAR     45  30  55 SE9       30.34R
LAMBERTVILLE   CLEAR     43  32  65 CALM      30.35F
LANSING        PTCLDY    51  26  37 S9        30.33R
LAPEER         FAIR      44  32  64 SE5       30.35S
MASON          CLEAR     47  32  54 SE10      30.34R
MONROE         CLEAR     39  30  70 E5        30.35F
MT. CLEMENS    CLEAR     39  32  76 S6        30.36S WCI  35
PONTIAC        PTCLDY    46  30  53 S9        30.35R
PORT HOPE        N/A     37  28  70 VRB3      30.36R
PORT HURON     CLEAR     34  32  93 CALM      30.38S
TRI CITIES     PTCLDY    40  35  83 N8        30.34S WCI  34
TROY           CLEAR     46  30  52 S3        30.37S
SAGINAW HB     PTCLDY    46  28  49 E6        30.34R
YPSILANTI      CLEAR     42  29  59 SE6       30.36F
$$
MIZ043>046-050>051-056>058-064>065-071>073-077>080-200300-
SOUTHWEST LOWER MICHIGAN

CITY           SKY/WX    TMP DP  RH WIND       PRES   REMARKS
BATTLE CREEK   CLEAR     51  30  44 SE14      30.33R
BENTON HARBOR  MOCLDY    53  33  46 SE7       30.29R
BIG RAPIDS     MOCLDY    48  34  60 SE9       30.30R
COLDWATER      CLEAR     46  27  46 SE7       30.33S
FREMONT        FAIR      52  26  35 SE6       30.28R
HOLLAND        MOCLDY    54  33  45 SE6       30.29R
GRAND RAPIDS   MOCLDY    54  28  36 SE10      30.30R
IONIA          FAIR      49  30  47 S9        30.31R
KALAMAZOO      PTCLDY    53  29  39 SE9       30.33R
LUDINGTON      MOCLDY    40  33  74 CALM      30.27S
MARSHALL       CLEAR     48  27  45 SE8       30.34R
MOUNT PLEASANT PTCLDY    43  32  65 E6        30.33R
MUSKEGON       MOCLDY    53  29  39 SE6       30.28R
SOUTH HAVEN    MOCLDY    55  30  38 SE6       30.30R
$$
MIZ016>042-200300-
NORTHERN LOWER MICHIGAN

CITY           SKY/WX    TMP DP  RH WIND       PRES   REMARKS
ALPENA         CLEAR     33  28  81 SE6       30.35F WCI  28
BEAVER ISLAND  MOCLDY    34  29  83 CALM      30.26R
BELLAIRE       MOCLDY    49  28  45 S8        30.28S
CADILLAC       PTCLDY    44  33  66 SE8       30.28R
CHARLEVOIX     MOCLDY    50  24  37 SE9       30.30R
FRANKFORT      MOCLDY    37  30  74 CALM      30.26S
GAYLORD        PTCLDY    41  24  51 S13       30.29F
GRAYLING       PTCLDY    40  25  54 SE9       30.31F WCI  34
HARBOR SPRINGS PTCLDY    48  25  40 SE3       30.28R
HOUGHTON LAKE  CLEAR     40  28  62 SE6       30.32S
MANISTEE       MOCLDY    39  30  70 CALM      30.28R
OSCODA         CLEAR     33  28  81 CALM      30.38S
PELLSTON       PTCLDY    41  26  55 SE6       30.29R
ROGERS CITY    CLEAR     36  26  68 SE9       30.35S WCI  29
TRAVERSE CITY  MOCLDY    50  31  48 SE5       30.26S
$$
MIZ007>008-015-200300-
EASTERN UPPER MICHIGAN

CITY           SKY/WX    TMP DP  RH WIND       PRES   REMARKS
KINROSS        PTCLDY    34  27  75 E10       30.30S WCI  26
MACKINAC ISLAN CLEAR     38  27  62 SE12G17   30.27F WCI  31
NEWBERRY       CLOUDY    36  26  66 SE12G18   30.23F WCI  28
S. S. MARIE    MOCLDY    35  22  58 E10       30.31S WCI  27
MUNISING         N/A     42  29  59 S8        30.20R
$$
MIZ004>006-011>014-085-200300-
CENTRAL UPPER MICHIGAN

CITY           SKY/WX    TMP DP  RH WIND       PRES   REMARKS
MANISTIQUE     CLOUDY    35  31  86 E9        30.23S WCI  27
ESCANABA       CLOUDY    37  30  75 SE3       30.22R
MENOMINEE      CLOUDY    43  32  65 S6        30.20S
SAWYER-GWINN   LGT RAIN  37  34  87 S17       30.16  WCI  28
$$
MIZ001>003-009>011-084-200300-
WESTERN UPPER MICHIGAN

CITY           SKY/WX    TMP DP  RH WIND       PRES   REMARKS
IRON MOUNTAIN  LGT RAIN  44  32  62 SE10      30.14F
HOUGHTON       CLOUDY    38  31  76 SE9       30.08R WCI  31
COPPER HARBOR    N/A     41  30  65 SW15G26   30.09R
IRONWOOD       CLOUDY    50  37  62 S16       30.00R
$$

ABBREVIATIONS USED IN REMARKS
   TC - TEMPERATURE IN CELSIUS
  WCI - WIND CHILL INDEX
   HX - HEAT INDEX
  VSB - VISIBILITY




USA.gov is the U.S. government's official web portal to all federal, state and local government web resources and services.